Location: Summit Observatory
(39.5293°N, 75.7290°W)
Time: 17:28:15
(UTC-04:00)

Amateur Radio Satellites - All Passes

Search period start: 03 September 2015 16:58
Search period end: 04 September 2015 16:58
Location: Summit Observatory, 39.5293°N, 75.7290°W

Satellite Date Start Highest point End Downlink Frequencies (MHz)
Time Altitude Azimuth
Cosmos 2499 03 Sep 17:14:13 17:21:09 27° 277° (W) 17:27:27 435.465 / 435.565
AIST 2 03 Sep 17:16:17 17:19:23 19° 315° (NW) 17:22:24 435.215
STARS 03 Sep 17:16:18 17:20:22 35° 289° (WNW) 17:24:22 437.465
JAS-2 03 Sep 17:34:07 17:35:28 10° 280° (W) 17:36:04 435.910
Cubesat XI-IV 03 Sep 17:40:51 17:45:19 29° 68° (ENE) 17:49:54 437.490
KKS-1 03 Sep 17:44:37 17:46:27 12° 296° (WNW) 17:48:03 437.445
AO-7 03 Sep 17:59:51 18:05:24 18° 271° (W) 18:10:28 29.400- 29.500
MOZHAYETS 4 03 Sep 18:17:06 18:21:11 32° 289° (WNW) 18:25:11
AIST 1 03 Sep 18:19:01 18:21:45 17° 71° (ENE) 18:24:38
CUTE-I 03 Sep 18:23:55 18:29:11 72° 75° (ENE) 18:34:31 437.470
CUBESAT XI-V 03 Sep 18:42:01 18:46:22 39° 97° (E) 18:50:45 437.345
Cosmos 2491 03 Sep 18:49:14 18:55:25 22° 63° (ENE) 19:01:59 435.465 / 435.565
RS-15 03 Sep 18:50:27 18:59:54 30° 329° (NNW) 19:09:29 29.354- 29.394
O/OREOS (USA 219) 03 Sep 18:57:00 19:01:33 85° 294° (WNW) 19:06:09 437.305
Cubesat XI-IV 03 Sep 19:20:30 19:25:21 34° 263° (W) 19:30:09 437.490
PRISM 03 Sep 19:24:39 19:27:07 16° 92° (E) 19:29:44 437.425
CANX-2 03 Sep 19:38:25 19:40:45 15° 67° (ENE) 19:43:16 2200.000
BRITE-PL 03 Sep 19:40:19 19:44:41 63° 75° (ENE) 19:49:26 437.365/2234.400
HO-68 03 Sep 19:46:00 19:52:17 36° 65° (ENE) 19:58:43 435.675
STRAND 1 03 Sep 19:46:40 19:51:33 45° 99° (E) 19:56:27 437.568
DOVE 4 03 Sep 19:51:38 19:55:40 30° 69° (ENE) 19:59:59 437.250
GOMX 1 03 Sep 19:53:04 19:57:28 50° 73° (ENE) 20:02:15 467.674
SEEDS 03 Sep 19:54:01 19:56:28 16° 67° (ENE) 19:59:05 437.485
AIST 1 03 Sep 19:55:33 19:59:37 38° 268° (W) 20:03:39
CUTE-I 03 Sep 20:07:18 20:09:55 13° 272° (W) 20:12:13 437.470
COMPASS 1 03 Sep 20:10:11 20:12:58 18° 68° (ENE) 20:15:55 437.405
CINEMA 3 03 Sep 20:14:21 20:18:01 23° 67° (ENE) 20:21:54 145.822/145.860
AAUSAT CUBESAT 2 03 Sep 20:17:30 20:20:20 18° 68° (ENE) 20:23:16 437.432
CUBESAT XI-V 03 Sep 20:20:06 20:23:34 21° 292° (WNW) 20:26:56 437.345
Cosmos 2491 03 Sep 20:44:39 20:53:26 79° 265° (W) 21:02:11 435.465 / 435.565
YUBILEINY 03 Sep 20:49:15 20:57:38 54° 91° (E) 21:06:11 435.215
CUTE 1.7 + AOD 2 03 Sep 20:57:26 21:01:44 80° 259° (WSW) 21:06:02 437.475
PRISM 03 Sep 20:58:53 21:02:44 38° 288° (WNW) 21:06:33 437.425
ZACube-1 03 Sep 21:06:16 21:09:33 20° 68° (ENE) 21:12:59 437.345
FUNcube-1 03 Sep 21:10:01 21:13:24 21° 68° (ENE) 21:16:56 145.935
RS-15 03 Sep 21:10:09 21:17:39 19° 4° (N) 21:25:25 29.354- 29.394
CANX-2 03 Sep 21:12:10 21:16:19 47° 261° (W) 21:20:28 2200.000
CUBEBUG 2 03 Sep 21:19:02 21:23:29 46° 73° (ENE) 21:28:03 437.445
UWE-3 03 Sep 21:19:25 21:23:38 36° 71° (ENE) 21:27:57 435.000/436.395/437.385
BRITE-PL 03 Sep 21:22:21 21:23:55 11° 274° (W) 21:25:13 437.365/2234.400
HUMSAT D 03 Sep 21:26:11 21:27:46 12° 65° (ENE) 21:29:35 437.325/437.525
STRAND 1 03 Sep 21:26:37 21:30:29 21° 294° (WNW) 21:34:13 437.568
SEEDS 03 Sep 21:27:51 21:31:56 44° 262° (W) 21:36:00 437.485
DOVE 4 03 Sep 21:29:21 21:33:23 28° 267° (W) 21:37:35 437.250
HO-68 03 Sep 21:33:07 21:39:55 44° 262° (W) 21:46:41 435.675
GOMX 1 03 Sep 21:33:12 21:36:05 16° 272° (W) 21:38:52 467.674
COMPASS 1 03 Sep 21:44:30 21:48:24 36° 263° (W) 21:52:17 437.405
CINEMA 3 03 Sep 21:50:33 21:54:58 38° 264° (W) 21:59:32 145.822/145.860
Oscar 11 03 Sep 21:50:53 21:55:14 88° 261° (W) 21:59:36 145.826/435.025
DX 1 03 Sep 21:51:04 21:53:05 13° 65° (ENE) 21:55:19 434.975-435.025
AAUSAT CUBESAT 2 03 Sep 21:51:49 21:55:41 35° 263° (W) 21:59:32 437.432
DELFI C3 03 Sep 21:52:18 21:56:17 60° 75° (ENE) 22:00:16 145.870
UKube-1 03 Sep 21:58:12 22:00:27 14° 65° (ENE) 22:02:52 .
50 SAT 03 Sep 22:09:48 22:11:47 14° 67° (ENE) 22:13:56 437.505
ESTCUBE 1 03 Sep 22:24:58 22:27:27 15° 66° (ENE) 22:30:07 437.505/2401.250
AISAT 03 Sep 22:25:10 22:28:23 21° 68° (ENE) 22:31:44 437.250
Cosmos 2504 03 Sep 22:33:50 22:40:53 34° 86° (E) 22:48:24 435.465 / 435.565
ZACube-1 03 Sep 22:41:22 22:45:39 39° 263° (W) 22:49:57 437.345
BEESAT 3 03 Sep 22:43:05 22:46:29 26° 49° (NE) 22:49:52 437.485
Cosmos 2491 03 Sep 22:44:52 22:49:03 14° 282° (WNW) 22:52:34 435.465 / 435.565
FUNcube-1 03 Sep 22:45:17 22:49:30 36° 264° (W) 22:53:44 145.935
UNISAT 6 03 Sep 22:45:38 22:49:01 21° 92° (E) 22:52:26 437.425
YUBILEINY 03 Sep 22:47:09 22:54:55 33° 291° (WNW) 23:02:32 435.215
VELOX 1 03 Sep 22:51:28 22:55:30 37° 71° (ENE) 22:59:35 145.980
M-CUBED/EXP-1 PRIME 03 Sep 22:53:35 22:54:15 10° 93° (E) 22:55:07 437.505
UWE-3 03 Sep 22:56:40 23:00:17 22° 268° (W) 23:03:48 435.000/436.395/437.385
CUBEBUG 2 03 Sep 22:57:17 23:00:28 17° 270° (W) 23:03:29 437.445
HUMSAT D 03 Sep 22:58:45 23:03:01 62° 260° (W) 23:07:20 437.325/437.525
BEESAT 2 03 Sep 23:00:03 23:03:36 28° 50° (NE) 23:07:08 435.950
TIGRISAT 03 Sep 23:12:12 23:16:26 39° 97° (E) 23:20:36 435.000
DUCHIFAT 1 03 Sep 23:15:32 23:17:42 14° 90° (E) 23:20:04 145.980
POLYITAN 1 03 Sep 23:16:37 23:19:09 16° 91° (E) 23:21:50 437.675
POPSAT HIP 1 03 Sep 23:17:50 23:20:23 16° 91° (E) 23:23:05 437.405
RS-15 03 Sep 23:24:38 23:35:02 36° 37° (NE) 23:45:59 29.354- 29.394
DX 1 03 Sep 23:24:40 23:28:55 55° 260° (W) 23:33:12 434.975-435.025
ANTELSAT 03 Sep 23:30:32 23:35:04 67° 100° (E) 23:39:28 437.575/2403.000
UKube-1 03 Sep 23:31:59 23:36:10 51° 260° (W) 23:40:24 .
NANOSAT C BR1 03 Sep 23:33:19 23:36:44 23° 94° (E) 23:40:11 145.865
SPROUT 03 Sep 23:33:57 23:37:03 20° 68° (ENE) 23:40:15 437.525
QB50P2 03 Sep 23:34:54 23:38:28 25° 95° (E) 23:42:04 145.880/145.840
50 SAT 03 Sep 23:42:10 23:45:57 43° 261° (W) 23:49:45 437.505
QB50P1 03 Sep 23:48:03 23:51:59 35° 97° (E) 23:55:55 145.935-145.965
CUBEBUG 1 03 Sep 23:50:20 23:54:40 80° 258° (WSW) 23:59:02 437.445
CUSAT 1 03 Sep 23:55:07 23:59:07 58° 94° (E) 00:04:32 437.405
AIST 2 03 Sep 23:59:15 00:02:44 25° 48° (NE) 00:06:12 435.215
ESTCUBE 1 03 Sep 23:59:35 00:03:56 51° 261° (W) 00:08:19 437.505/2401.250
AISAT 04 Sep 00:00:42 00:04:45 35° 263° (W) 00:08:49 437.250
PCSat 04 Sep 00:07:39 00:09:52 13° 105° (ESE) 00:12:24 145.827
SO-50 04 Sep 00:12:37 00:17:05 41° 115° (ESE) 00:21:42 436.795
AUBIESAT-1 04 Sep 00:16:58 00:20:47 74° 290° (WNW) 00:24:18 437.475
BEESAT 3 04 Sep 00:20:54 00:24:22 27° 246° (WSW) 00:27:43 437.485
UNISAT 6 04 Sep 00:21:47 00:25:55 34° 289° (WNW) 00:29:53 437.425
TISAT 1 04 Sep 00:23:33 00:27:27 39° 72° (ENE) 00:31:26 437.305
Cosmos 2504 04 Sep 00:24:53 00:32:50 50° 285° (WNW) 00:41:06 435.465 / 435.565
M-CUBED/EXP-1 PRIME 04 Sep 00:25:47 00:29:31 46° 292° (WNW) 00:32:57 437.505
VELOX 1 04 Sep 00:29:02 00:32:12 19° 268° (W) 00:35:15 145.980
BEESAT 2 04 Sep 00:38:12 00:41:32 24° 247° (WSW) 00:44:45 435.950
BUGSAT 1 04 Sep 00:42:02 00:46:20 87° 110° (ESE) 00:50:36 437.445
ITUPSAT 1 04 Sep 00:43:01 00:44:46 12° 63° (ENE) 00:46:45 437.325
DANDE 04 Sep 00:48:23 00:52:00 60° 283° (WNW) 00:56:54 436.750
TIGRISAT 04 Sep 00:49:39 00:52:55 19° 293° (WNW) 00:55:59 435.000
DUCHIFAT 1 04 Sep 00:49:41 00:53:48 46° 287° (WNW) 00:57:53 145.980
POLYITAN 1 04 Sep 00:51:12 00:55:18 42° 287° (WNW) 00:59:19 437.675
POPSAT HIP 1 04 Sep 00:52:24 00:56:29 42° 287° (WNW) 01:00:31 437.405
NANOSAT C BR1 04 Sep 01:08:50 01:12:33 28° 290° (WNW) 01:16:11 145.865
SPROUT 04 Sep 01:08:58 01:12:54 34° 263° (W) 01:16:51 437.525
Oscar 19 04 Sep 01:09:04 01:10:12 11° 87° (E) 01:11:42 437.125/150
ANTELSAT 04 Sep 01:09:26 01:11:18 12° 296° (WNW) 01:12:56 437.575/2403.000
QB50P2 04 Sep 01:10:41 01:14:18 26° 290° (WNW) 01:17:49 145.880/145.840
BEESAT 04 Sep 01:11:44 01:15:29 24° 68° (ENE) 01:19:21 436.000
QB50P1 04 Sep 01:24:28 01:27:37 20° 292° (WNW) 01:30:40 145.935-145.965
VERMONT LUNAR 04 Sep 01:31:32 01:33:18 15° 149° (SSE) 01:35:06 437.305
RS-15 04 Sep 01:37:00 01:48:56 81° 241° (WSW) 02:01:11 29.354- 29.394
SWISSCUBE 04 Sep 01:37:18 01:41:51 47° 72° (ENE) 01:46:26 437.505
AIST 2 04 Sep 01:37:37 01:41:19 30° 245° (WSW) 01:44:54 435.215
GONETS M04 04 Sep 01:39:22 01:45:45 25° 83° (E) 01:52:31
CUSAT 1 04 Sep 01:40:11 01:42:42 14° 303° (WNW) 01:45:18 437.405
PCSat 04 Sep 01:47:16 01:52:41 78° 299° (WNW) 01:58:08 145.827
SO-50 04 Sep 01:53:42 01:57:47 26° 314° (NW) 02:01:55 436.795
TISAT 1 04 Sep 02:00:40 02:03:26 16° 269° (W) 02:06:02 437.305
ITAMSAT 1 04 Sep 02:15:08 02:16:39 11° 88° (E) 02:18:31 435.822/435.867
Gurwin Techsat 1B 04 Sep 02:16:02 02:19:07 16° 90° (E) 02:22:28 435.225
ITUPSAT 1 04 Sep 02:17:20 02:22:06 74° 258° (WSW) 02:26:53 437.325
STARS 04 Sep 02:37:07 02:39:56 17° 66° (ENE) 02:42:53 437.465
Oscar 19 04 Sep 02:45:05 02:50:18 82° 286° (WNW) 02:55:29 437.125/150
BEESAT 04 Sep 02:48:49 02:53:10 34° 263° (W) 02:57:30 436.000
JAS-2 04 Sep 02:54:30 02:59:12 21° 87° (E) 03:03:46 435.910
KKS-1 04 Sep 03:02:54 03:07:14 54° 74° (ENE) 03:11:38 437.445
VERMONT LUNAR 04 Sep 03:06:24 03:09:22 62° 163° (SSE) 03:12:20 437.305
SWISSCUBE 04 Sep 03:16:49 03:20:00 17° 269° (W) 03:22:59 437.505
PHONESAT 2.4 04 Sep 03:21:44 03:22:39 11° 145° (SE) 03:23:40 2401.200-2431.200
O/OREOS (USA 219) 04 Sep 03:29:49 03:32:44 17° 54° (NE) 03:35:47 437.305
GONETS M04 04 Sep 03:33:19 03:41:56 67° 281° (W) 03:50:38
PCSat 04 Sep 03:34:18 03:37:06 14° 320° (NW) 03:39:41 145.827
MOZHAYETS 4 04 Sep 03:41:45 03:45:05 21° 68° (ENE) 03:48:33
ITAMSAT 1 04 Sep 03:51:40 03:56:52 78° 285° (WNW) 04:02:03 435.822/435.867
RS-15 04 Sep 03:52:10 04:00:00 19° 259° (W) 04:07:01 29.354- 29.394
Cosmos 2499 04 Sep 03:54:01 04:02:04 50° 90° (E) 04:10:33 435.465 / 435.565
Gurwin Techsat 1B 04 Sep 03:54:21 03:59:35 60° 287° (WNW) 04:04:48 435.225
AO-7 04 Sep 04:06:27 04:13:26 31° 95° (E) 04:20:35 29.400- 29.500
HORYU 2 04 Sep 04:07:57 04:10:55 18° 92° (E) 04:14:00 437.375
STARS 04 Sep 04:11:50 04:16:03 43° 261° (W) 04:20:18 437.465
Oscar 19 04 Sep 04:28:05 04:28:55 10° 300° (WNW) 04:29:25 437.125/150
JAS-2 04 Sep 04:38:16 04:45:00 60° 289° (WNW) 04:50:54 435.910
KKS-1 04 Sep 04:42:02 04:44:16 13° 270° (W) 04:46:17 437.445
VERMONT LUNAR 04 Sep 04:42:48 04:45:47 69° 360° (N) 04:48:45 437.305
PHONESAT 2.4 04 Sep 04:56:45 05:00:03 46° 159° (SSE) 05:03:20 2401.200-2431.200
O/OREOS (USA 219) 04 Sep 05:08:04 05:12:33 51° 253° (WSW) 05:16:58 437.305
MOZHAYETS 4 04 Sep 05:17:47 05:22:06 38° 263° (W) 05:26:22
GONETS M04 04 Sep 05:37:32 05:40:59 12° 305° (NW) 05:43:45
HORYU 2 04 Sep 05:43:34 05:47:44 39° 289° (WNW) 05:51:51 437.375
CUBESAT XI-V 04 Sep 05:44:38 05:48:45 34° 71° (ENE) 05:52:54 437.345
Cosmos 2499 04 Sep 05:47:44 05:55:33 36° 290° (WNW) 06:03:28 435.465 / 435.565
AO-7 04 Sep 05:58:35 06:06:40 58° 293° (WNW) 06:14:41 29.400- 29.500
Cubesat XI-IV 04 Sep 06:00:58 06:02:28 11° 87° (E) 06:04:21 437.490
PRISM 04 Sep 06:15:29 06:16:33 11° 65° (ENE) 06:17:50 437.425
VERMONT LUNAR 04 Sep 06:19:15 06:22:12 66° 197° (SSW) 06:25:09 437.305
PHONESAT 2.4 04 Sep 06:34:27 06:37:52 76° 353° (N) 06:41:17 2401.200-2431.200
CUTE-I 04 Sep 06:42:18 06:46:56 30° 95° (E) 06:51:38 437.470
YUBILEINY 04 Sep 07:01:09 07:07:58 25° 65° (ENE) 07:15:03 435.215
STRAND 1 04 Sep 07:01:34 07:06:34 59° 73° (ENE) 07:11:36 437.568
CUBESAT XI-V 04 Sep 07:22:40 07:26:17 22° 267° (W) 07:29:47 437.345
Cubesat XI-IV 04 Sep 07:37:58 07:43:19 81° 286° (WNW) 07:48:40 437.490
BRITE-PL 04 Sep 07:45:40 07:50:19 27° 93° (E) 07:55:09 437.365/2234.400
PRISM 04 Sep 07:47:28 07:51:31 61° 259° (W) 07:55:34 437.425
Cosmos 2491 04 Sep 07:50:17 07:56:42 25° 83° (E) 08:03:29 435.465 / 435.565
AO-7 04 Sep 07:54:37 07:57:54 12° 313° (NW) 08:00:42 29.400- 29.500
GOMX 1 04 Sep 07:56:18 08:00:08 20° 90° (E) 08:04:09 467.674
VERMONT LUNAR 04 Sep 07:56:23 07:58:16 15° 211° (SSW) 08:00:07 437.305
ISS 04 Sep 08:01:55 08:05:10 87° 318° (NW) 08:08:27 145.825
PHONESAT 2.4 04 Sep 08:12:24 08:15:49 87° 188° (S) 08:19:14 2401.200-2431.200
CUTE-I 04 Sep 08:22:17 08:27:01 33° 291° (WNW) 08:31:41 437.470
AIST 1 04 Sep 08:23:36 08:27:48 62° 279° (W) 08:32:02
STRAND 1 04 Sep 08:43:14 08:46:15 15° 270° (W) 08:49:02 437.568
CUTE 1.7 + AOD 2 04 Sep 08:44:30 08:47:23 18° 92° (E) 08:50:23 437.475
SO-50 04 Sep 08:45:00 08:49:25 32° 49° (NE) 08:53:46 436.795
CUSAT 1 04 Sep 08:51:56 08:53:50 11° 55° (NE) 08:56:22 437.405
PCSat 04 Sep 08:54:56 08:56:57 12° 38° (NE) 08:59:12 145.827
YUBILEINY 04 Sep 08:56:56 09:05:42 69° 267° (W) 09:14:22 435.215
CANX-2 04 Sep 08:58:30 09:02:12 29° 95° (E) 09:05:55 2200.000
HO-68 04 Sep 09:01:28 09:08:05 39° 97° (E) 09:14:45 435.675
SEEDS 04 Sep 09:13:06 09:16:48 30° 96° (E) 09:20:30 437.485
CUBEBUG 2 04 Sep 09:14:15 09:14:53 10° 86° (E) 09:15:51 437.445
Cubesat XI-IV 04 Sep 09:21:28 09:22:41 11° 300° (WNW) 09:23:34 437.490
BRITE-PL 04 Sep 09:23:40 09:28:55 42° 289° (WNW) 09:34:13 437.365/2234.400
DOVE 4 04 Sep 09:28:12 09:33:34 88° 96° (E) 09:38:47 437.250
COMPASS 1 04 Sep 09:28:30 09:32:19 35° 97° (E) 09:36:08 437.405
AUBIESAT-1 04 Sep 09:30:24 09:32:37 14° 60° (ENE) 09:35:02 437.475
GOMX 1 04 Sep 09:33:13 09:38:35 54° 287° (WNW) 09:43:53 467.674
AAUSAT CUBESAT 2 04 Sep 09:35:18 09:39:05 35° 97° (E) 09:42:54 437.432
M-CUBED/EXP-1 PRIME 04 Sep 09:38:20 09:41:39 20° 62° (ENE) 09:45:02 437.505
ISS 04 Sep 09:39:45 09:41:59 17° 340° (NNW) 09:44:12 145.825
Oscar 11 04 Sep 09:40:10 09:43:01 18° 92° (E) 09:46:00 145.826/435.025
UNISAT 6 04 Sep 09:43:53 09:47:06 19° 67° (ENE) 09:50:28 437.425
Cosmos 2491 04 Sep 09:44:17 09:52:56 66° 281° (W) 10:01:36 435.465 / 435.565
DANDE 04 Sep 09:44:48 09:50:16 21° 64° (ENE) 09:56:26 436.750
CINEMA 3 04 Sep 09:46:05 09:51:00 59° 99° (E) 09:55:44 145.822/145.860
PHONESAT 2.4 04 Sep 09:50:33 09:53:28 27° 208° (SSW) 09:56:23 2401.200-2431.200
DUCHIFAT 1 04 Sep 10:09:17 10:09:30 10° 64° (ENE) 10:09:57 145.980
TIGRISAT 04 Sep 10:09:45 10:13:55 33° 70° (ENE) 10:18:09 435.000
POLYITAN 1 04 Sep 10:10:10 10:11:31 12° 64° (ENE) 10:13:06 437.675
POPSAT HIP 1 04 Sep 10:11:14 10:12:32 11° 64° (ENE) 10:14:04 437.405
Cosmos 2504 04 Sep 10:12:35 10:20:48 55° 77° (ENE) 10:28:31 435.465 / 435.565
CUTE 1.7 + AOD 2 04 Sep 10:19:36 10:23:26 34° 288° (WNW) 10:27:13 437.475
SO-50 04 Sep 10:25:34 10:29:58 33° 246° (WSW) 10:34:11 436.795
NANOSAT C BR1 04 Sep 10:25:42 10:28:18 17° 67° (ENE) 10:31:04 145.865
QB50P2 04 Sep 10:27:32 10:30:24 18° 67° (ENE) 10:33:25 145.880/145.840
ANTELSAT 04 Sep 10:28:03 10:32:36 53° 74° (ENE) 10:37:13 437.575/2403.000
CUSAT 1 04 Sep 10:30:23 10:38:14 56° 75° (ENE) 10:46:13 437.405
ZACube-1 04 Sep 10:30:51 10:35:06 43° 97° (E) 10:39:15 437.345
FUNcube-1 04 Sep 10:34:25 10:38:41 45° 98° (E) 10:42:51 145.935
CANX-2 04 Sep 10:34:42 10:37:59 22° 291° (WNW) 10:41:09 2200.000
PCSat 04 Sep 10:36:05 10:41:30 68° 60° (ENE) 10:46:54 145.827
QB50P1 04 Sep 10:40:11 10:43:34 24° 69° (ENE) 10:47:03 145.935-145.965
HUMSAT D 04 Sep 10:44:20 10:47:35 22° 93° (E) 10:50:53 437.325/437.525
UWE-3 04 Sep 10:46:20 10:50:55 87° 99° (E) 10:55:20 435.000/436.395/437.385
CUBEBUG 2 04 Sep 10:47:34 10:52:13 70° 284° (WNW) 10:56:40 437.445
HO-68 04 Sep 10:49:13 10:55:50 40° 294° (WNW) 11:02:20 435.675
SEEDS 04 Sep 10:49:14 10:52:25 21° 291° (WNW) 10:55:29 437.485
YUBILEINY 04 Sep 10:58:24 11:01:05 11° 284° (WNW) 11:02:59 435.215
AUBIESAT-1 04 Sep 11:02:07 11:06:51 72° 254° (WSW) 11:11:28 437.475
COMPASS 1 04 Sep 11:04:51 11:07:44 18° 292° (WNW) 11:10:29 437.405
DELFI C3 04 Sep 11:06:52 11:10:50 68° 285° (WNW) 11:14:47 145.870
DOVE 4 04 Sep 11:08:21 11:10:35 12° 298° (WNW) 11:12:33 437.250
M-CUBED/EXP-1 PRIME 04 Sep 11:11:26 11:16:06 49° 256° (WSW) 11:20:39 437.505
AAUSAT CUBESAT 2 04 Sep 11:11:36 11:14:27 18° 292° (WNW) 11:17:10 437.432
DX 1 04 Sep 11:14:10 11:17:50 26° 95° (E) 11:21:33 434.975-435.025
Oscar 11 04 Sep 11:15:23 11:19:23 37° 288° (WNW) 11:23:19 145.826/435.025
50 SAT 04 Sep 11:18:33 11:21:26 20° 94° (E) 11:24:21 437.505
UNISAT 6 04 Sep 11:19:04 11:23:34 44° 262° (W) 11:28:05 437.425
UKube-1 04 Sep 11:20:31 11:24:12 27° 96° (E) 11:27:57 .
CINEMA 3 04 Sep 11:24:37 11:27:41 16° 295° (WNW) 11:30:31 145.822/145.860
DANDE 04 Sep 11:26:19 11:34:20 89° 262° (W) 11:42:54 436.750
BUGSAT 1 04 Sep 11:30:59 11:34:56 51° 74° (ENE) 11:38:59 437.445
DUCHIFAT 1 04 Sep 11:40:31 11:44:44 73° 258° (WSW) 11:49:01 145.980
CUBEBUG 1 04 Sep 11:40:45 11:44:01 20° 93° (E) 11:47:22 437.445
POLYITAN 1 04 Sep 11:42:41 11:46:55 64° 259° (W) 11:51:13 437.675
POPSAT HIP 1 04 Sep 11:43:41 11:47:54 64° 259° (W) 11:52:11 437.405
TIGRISAT 04 Sep 11:46:49 11:50:41 24° 267° (W) 11:54:28 435.000
Cosmos 2491 04 Sep 11:48:37 11:52:00 12° 305° (NW) 11:54:41 435.465 / 435.565
AISAT 04 Sep 11:51:43 11:56:01 45° 99° (E) 12:00:20 437.250
GONETS M04 04 Sep 11:52:32 11:53:56 11° 54° (NE) 11:56:08
ESTCUBE 1 04 Sep 11:53:08 11:57:14 34° 97° (E) 12:01:21 437.505/2401.250
NANOSAT C BR1 04 Sep 11:59:47 12:03:49 42° 262° (W) 12:07:53 145.865
QB50P2 04 Sep 12:02:03 12:06:02 37° 262° (W) 12:10:02 145.880/145.840
Cosmos 2504 04 Sep 12:05:33 12:12:34 30° 276° (W) 12:19:01 435.465 / 435.565
ANTELSAT 04 Sep 12:06:57 12:09:45 15° 270° (W) 12:12:21 437.575/2403.000
ZACube-1 04 Sep 12:08:09 12:11:07 17° 294° (WNW) 12:13:54 437.345
FUNcube-1 04 Sep 12:11:49 12:14:38 16° 294° (WNW) 12:17:15 145.935
CUSAT 1 04 Sep 12:13:28 12:20:32 33° 271° (W) 12:27:25 437.405
QB50P1 04 Sep 12:15:38 12:19:20 27° 265° (W) 12:22:59 145.935-145.965
VELOX 1 04 Sep 12:18:37 12:23:07 87° 102° (ESE) 12:27:36 145.980
HUMSAT D 04 Sep 12:19:41 12:23:20 28° 289° (WNW) 12:26:53 437.325/437.525
PCSat 04 Sep 12:21:13 12:24:24 15° 255° (WSW) 12:27:20 145.827
Oscar 19 04 Sep 12:24:10 12:27:14 17° 64° (ENE) 12:30:30 437.125/150
DX 1 04 Sep 12:50:18 12:54:02 27° 291° (WNW) 12:57:41 434.975-435.025
50 SAT 04 Sep 12:52:42 12:55:56 25° 290° (WNW) 12:59:05 437.505
ISS 04 Sep 12:54:41 12:56:55 17° 20° (NNE) 12:59:11 145.825
SPROUT 04 Sep 12:56:03 13:00:11 42° 98° (E) 13:04:18 437.525
UKube-1 04 Sep 12:56:39 13:00:16 25° 291° (WNW) 13:03:47 .
JAS-2 04 Sep 13:07:37 13:10:16 12° 54° (NE) 13:13:24 435.910
BUGSAT 1 04 Sep 13:09:13 13:10:48 12° 271° (W) 13:12:10 437.445
DANDE 04 Sep 13:11:20 13:16:49 19° 275° (W) 13:22:02 436.750
CUBEBUG 1 04 Sep 13:16:25 13:20:28 34° 289° (WNW) 13:24:27 437.445
AISAT 04 Sep 13:29:18 13:32:16 17° 294° (WNW) 13:35:05 437.250
ESTCUBE 1 04 Sep 13:30:26 13:33:56 22° 292° (WNW) 13:37:19 437.505/2401.250
ITAMSAT 1 04 Sep 13:31:32 13:34:51 18° 64° (ENE) 13:38:21 435.822/435.867
Gurwin Techsat 1B 04 Sep 13:35:57 13:40:06 25° 67° (ENE) 13:44:24 435.225
SWISSCUBE 04 Sep 13:40:19 13:42:18 13° 89° (E) 13:44:34 437.505
TISAT 1 04 Sep 13:43:59 13:48:17 83° 102° (ESE) 13:52:33 437.305
GONETS M04 04 Sep 13:44:32 13:53:13 60° 78° (ENE) 14:01:57
Cosmos 2499 04 Sep 13:48:29 13:53:19 17° 59° (ENE) 13:58:27 435.465 / 435.565
RS-15 04 Sep 13:53:57 13:58:52 15° 99° (E) 14:04:48 29.354- 29.394
Oscar 19 04 Sep 14:01:00 14:06:07 62° 259° (W) 14:11:17 437.125/150
BEESAT 3 04 Sep 14:11:27 14:15:26 62° 119° (ESE) 14:19:29 437.485
ITUPSAT 1 04 Sep 14:19:10 14:23:19 30° 96° (E) 14:27:31 437.325
BEESAT 2 04 Sep 14:29:33 14:33:37 73° 120° (ESE) 14:37:44 435.950
ISS 04 Sep 14:30:28 14:33:43 89° 244° (WSW) 14:36:58 145.825
SPROUT 04 Sep 14:33:04 14:35:57 17° 293° (WNW) 14:38:41 437.525
JAS-2 04 Sep 14:46:23 14:53:57 60° 71° (ENE) 15:01:38 435.910
BEESAT 04 Sep 14:49:20 14:54:04 64° 101° (ESE) 14:58:47 436.000
KKS-1 04 Sep 14:57:18 14:58:32 11° 88° (E) 15:00:03 437.445
AO-7 04 Sep 15:04:22 15:11:52 40° 63° (ENE) 15:19:30 29.400- 29.500
HORYU 2 04 Sep 15:05:50 15:08:32 16° 66° (ENE) 15:11:25 437.375
ITAMSAT 1 04 Sep 15:08:53 15:13:57 56° 259° (W) 15:19:03 435.822/435.867
Gurwin Techsat 1B 04 Sep 15:14:53 15:19:53 41° 262° (W) 15:24:53 435.225
SWISSCUBE 04 Sep 15:15:57 15:20:40 62° 286° (WNW) 15:25:21 437.505
AIST 2 04 Sep 15:33:43 15:37:55 68° 119° (ESE) 15:42:09 435.215
Cosmos 2499 04 Sep 15:39:31 15:48:09 85° 82° (E) 15:56:06 435.465 / 435.565
GONETS M04 04 Sep 15:42:20 15:49:34 28° 276° (W) 15:56:31
SRMSAT 04 Sep 15:44:32 15:45:13 10° 182° (S) 15:45:53 437.500
BEESAT 3 04 Sep 15:51:23 15:53:47 15° 317° (NW) 15:56:05 437.485
ITUPSAT 1 04 Sep 15:57:06 16:01:08 27° 291° (WNW) 16:05:06 437.325
RS-15 04 Sep 15:58:42 16:09:31 76° 117° (ESE) 16:20:50 29.354- 29.394
STARS 04 Sep 16:02:20 16:06:24 35° 97° (E) 16:10:29 437.465
BEESAT 2 04 Sep 16:10:04 16:12:11 13° 318° (NW) 16:14:10 435.950
BEESAT 04 Sep 16:28:54 16:31:26 14° 296° (WNW) 16:33:44 436.000
KKS-1 04 Sep 16:31:12 16:35:40 64° 286° (WNW) 16:40:05 437.445
JAS-2 04 Sep 16:32:45 16:39:22 29° 269° (W) 16:45:53 435.910
HORYU 2 04 Sep 16:40:27 16:44:49 48° 261° (W) 16:49:11 437.375
